Linda — OJML — position and weather

sailwx.info

Track history (hours):
 
Tides and Currents Weather Stations Pressure Air Temp Water Temp Dewpoint Dewpoint Depression Visibility Wind Speed Wind Dir Waves Ship Positions

Linda

Last reported at 2014-Nov-26 18:22 UTC. Time now 2014-Nov-27 05:39 UTC.
Position N 54°36' W 001°09'.

Length 141 m; draft 8.4 m.

Type: Cargo ship. MMSI: 230984000.

Date/timePositionNaut miles runAvg speedWind from/ knotsBaromVisibWave heightAir tempDewpointWater temp
2014-Nov-26 18:22N 54°36' W 001°09'0 0.0
2014-Nov-26 17:28N 54°36' W 001°09'1 1.0
2014-Nov-26 16:32N 54°37' W 001°09'1510.9
2014-Nov-26 15:08N 54°36' W 000°43'1016.7
2014-Nov-26 14:34N 54°32' W 000°28'1716.8
2014-Nov-26 13:34N 54°29' E 000°01'1717.2
2014-Nov-26 12:34N 54°28' E 000°30'17016.7
2014-Nov-26 02:23N 54°15' E 005°22'6316.5
2014-Nov-25 22:34N 54°12' E 007°10'1515.3
2014-Nov-25 21:33N 54°11' E 007°36'1615.9
2014-Nov-25 20:34N 54°03' E 007°60'1616.2
2014-Nov-25 19:33N 53°59' E 008°26'1717.3
2014-Nov-25 18:33N 53°50' E 008°52'1110.6
2014-Nov-25 17:33N 53°54' E 009°09'2 2.1
2014-Nov-25 16:33N 53°55' E 009°11'8 7.5
2014-Nov-25 15:33N 54°01' E 009°18'8 7.6
2014-Nov-25 14:33N 54°09' E 009°21'2 2.3
2014-Nov-25 13:33N 54°10' E 009°25'7 6.7
2014-Nov-25 12:33N 54°13' E 009°35'8 7.3
2014-Nov-25 11:30N 54°19' E 009°43'3 2.7
2014-Nov-25 10:33N 54°21' E 009°46'7 7.0
2014-Nov-25 09:33N 54°21' E 009°58'6 5.6
2014-Nov-25 08:33N 54°22' E 010°07'2 1.7
2014-Nov-25 07:33N 54°22' E 010°10'1 1.2
2014-Nov-25 06:33N 54°23' E 010°11'1110.9
2014-Nov-25 05:31N 54°32' E 010°21'0 0.0
2014-Nov-25 03:19N 54°32' E 010°21'0 0.0
2014-Nov-25 02:31N 54°32' E 010°21'0 0.0
2014-Nov-25 01:31N 54°32' E 010°21'0 0.0
2014-Nov-25 00:31N 54°32' E 010°21'3812.7
2014-Nov-24 21:30N 54°31' E 011°27'2013.9
2014-Nov-24 20:03N 54°27' E 012°01'612.6
2014-Nov-24 19:33N 54°28' E 012°11'9214.7
2014-Nov-24 13:17N 55°19' E 014°25'1314.9
2014-Nov-24 12:24N 55°26' E 014°44'1315.3
2014-Nov-24 11:33N 55°27' E 015°07'1514.7
2014-Nov-24 10:33N 55°29' E 015°33'  
2014-Nov-21 11:15N 59°39' E 023°08'1115.8
2014-Nov-21 10:34N 59°41' E 023°29'1615.9
2014-Nov-21 09:33N 59°45' E 023°60'2813.9
2014-Nov-21 07:33N 59°50' E 024°55'1616.0
2014-Nov-21 06:32N 59°53' E 025°26'1717.3
2014-Nov-21 05:32N 59°57' E 025°60'1818.1
2014-Nov-21 04:33N 60°01' E 026°34'3 0.1
2014-Nov-19 23:21N 59°60' E 026°38'4515.4
2014-Nov-19 20:26N 60°04' E 025°09'910.6
2014-Nov-19 19:33N 60°13' E 025°11'0 0.0
2014-Nov-19 18:26N 60°13' E 025°11'0 0.0
2014-Nov-19 17:32N 60°13' E 025°11'0 0.0
2014-Nov-19 16:20N 60°13' E 025°11'0 0.0
2014-Nov-19 15:32N 60°13' E 025°11'0 0.0
2014-Nov-19 14:11N 60°13' E 025°11'0 0.0
2014-Nov-19 13:32N 60°13' E 025°11'0 0.0
2014-Nov-19 12:33N 60°13' E 025°11'5 5.4
2014-Nov-19 11:34N 60°08' E 025°12'2417.3
2014-Nov-19 10:12N 59°47' E 024°47'1117.0
2014-Nov-19 09:33N 59°44' E 024°27'2517.0
2014-Nov-19 08:04N 59°35' E 023°40'352 9.1
2014-Nov-17 17:33N 55°39' E 015°32'1616.3
2014-Nov-17 16:32N 55°31' E 015°07'1716.7
2014-Nov-17 15:32N 55°23' E 014°41'1716.8
2014-Nov-17 14:33N 55°10' E 014°22'6716.7
2014-Nov-17 10:33N 54°39' E 012°38'1616.4
2014-Nov-17 09:33N 54°30' E 012°16'1615.4
2014-Nov-17 08:30N 54°25' E 011°49'2216.7
2014-Nov-17 07:11N 54°33' E 011°14'1016.0
2014-Nov-17 06:33N 54°35' E 010°57'1716.9
2014-Nov-17 05:33N 54°32' E 010°29'1413.5
2014-Nov-17 04:33N 54°23' E 010°11'2 2.1
2014-Nov-17 03:33N 54°22' E 010°08'6 6.4
2014-Nov-17 02:33N 54°20' E 009°57'7 6.6
2014-Nov-17 01:33N 54°21' E 009°46'7 7.2
2014-Nov-17 00:33N 54°16' E 009°37'8 7.6
2014-Nov-16 23:33N 54°11' E 009°27'13 6.5
2014-Nov-16 21:29N 53°59' E 009°17'7 7.6
2014-Nov-16 20:33N 53°54' E 009°09'4 4.3
2014-Nov-16 19:34N 53°52' E 009°02'1515.4
2014-Nov-16 18:34N 53°57' E 008°38'  
Track history (hours):
 
Tides and Currents Weather Stations Pressure Air Temp Water Temp Dewpoint Dewpoint Depression Visibility Wind Speed Wind Dir Waves Ship Positions

Linda

Last reported at 2014-Nov-26 18:22 UTC. Time now 2014-Nov-27 05:39 UTC.
Position N 54°36' W 001°09'.

Length 141 m; draft 8.4 m.

Type: Cargo ship. MMSI: 230984000.

Date/timePositionNaut miles runAvg speedWind from/ knotsBaromVisibWave heightAir tempDewpointWater temp
2014-Nov-26 18:22N 54°36' W 001°09'0 0.0
2014-Nov-26 17:28N 54°36' W 001°09'1 1.0
2014-Nov-26 16:32N 54°37' W 001°09'1510.9
2014-Nov-26 15:08N 54°36' W 000°43'1016.7
2014-Nov-26 14:34N 54°32' W 000°28'1716.8
2014-Nov-26 13:34N 54°29' E 000°01'1717.2
2014-Nov-26 12:34N 54°28' E 000°30'17016.7
2014-Nov-26 02:23N 54°15' E 005°22'6316.5
2014-Nov-25 22:34N 54°12' E 007°10'1515.3
2014-Nov-25 21:33N 54°11' E 007°36'1615.9
2014-Nov-25 20:34N 54°03' E 007°60'1616.2
2014-Nov-25 19:33N 53°59' E 008°26'1717.3
2014-Nov-25 18:33N 53°50' E 008°52'1110.6
2014-Nov-25 17:33N 53°54' E 009°09'2 2.1
2014-Nov-25 16:33N 53°55' E 009°11'8 7.5
2014-Nov-25 15:33N 54°01' E 009°18'8 7.6
2014-Nov-25 14:33N 54°09' E 009°21'2 2.3
2014-Nov-25 13:33N 54°10' E 009°25'7 6.7
2014-Nov-25 12:33N 54°13' E 009°35'8 7.3
2014-Nov-25 11:30N 54°19' E 009°43'3 2.7
2014-Nov-25 10:33N 54°21' E 009°46'7 7.0
2014-Nov-25 09:33N 54°21' E 009°58'6 5.6
2014-Nov-25 08:33N 54°22' E 010°07'2 1.7
2014-Nov-25 07:33N 54°22' E 010°10'1 1.2
2014-Nov-25 06:33N 54°23' E 010°11'1110.9
2014-Nov-25 05:31N 54°32' E 010°21'0 0.0
2014-Nov-25 03:19N 54°32' E 010°21'0 0.0
2014-Nov-25 02:31N 54°32' E 010°21'0 0.0
2014-Nov-25 01:31N 54°32' E 010°21'0 0.0
2014-Nov-25 00:31N 54°32' E 010°21'3812.7
2014-Nov-24 21:30N 54°31' E 011°27'2013.9
2014-Nov-24 20:03N 54°27' E 012°01'612.6
2014-Nov-24 19:33N 54°28' E 012°11'9214.7
2014-Nov-24 13:17N 55°19' E 014°25'1314.9
2014-Nov-24 12:24N 55°26' E 014°44'1315.3
2014-Nov-24 11:33N 55°27' E 015°07'1514.7
2014-Nov-24 10:33N 55°29' E 015°33'  
2014-Nov-21 11:15N 59°39' E 023°08'1115.8
2014-Nov-21 10:34N 59°41' E 023°29'1615.9
2014-Nov-21 09:33N 59°45' E 023°60'2813.9
2014-Nov-21 07:33N 59°50' E 024°55'1616.0
2014-Nov-21 06:32N 59°53' E 025°26'1717.3
2014-Nov-21 05:32N 59°57' E 025°60'1818.1
2014-Nov-21 04:33N 60°01' E 026°34'3 0.1
2014-Nov-19 23:21N 59°60' E 026°38'4515.4
2014-Nov-19 20:26N 60°04' E 025°09'910.6
2014-Nov-19 19:33N 60°13' E 025°11'0 0.0
2014-Nov-19 18:26N 60°13' E 025°11'0 0.0
2014-Nov-19 17:32N 60°13' E 025°11'0 0.0
2014-Nov-19 16:20N 60°13' E 025°11'0 0.0
2014-Nov-19 15:32N 60°13' E 025°11'0 0.0
2014-Nov-19 14:11N 60°13' E 025°11'0 0.0
2014-Nov-19 13:32N 60°13' E 025°11'0 0.0
2014-Nov-19 12:33N 60°13' E 025°11'5 5.4
2014-Nov-19 11:34N 60°08' E 025°12'2417.3
2014-Nov-19 10:12N 59°47' E 024°47'1117.0
2014-Nov-19 09:33N 59°44' E 024°27'2517.0
2014-Nov-19 08:04N 59°35' E 023°40'352 9.1
2014-Nov-17 17:33N 55°39' E 015°32'1616.3
2014-Nov-17 16:32N 55°31' E 015°07'1716.7
2014-Nov-17 15:32N 55°23' E 014°41'1716.8
2014-Nov-17 14:33N 55°10' E 014°22'6716.7
2014-Nov-17 10:33N 54°39' E 012°38'1616.4
2014-Nov-17 09:33N 54°30' E 012°16'1615.4
2014-Nov-17 08:30N 54°25' E 011°49'2216.7
2014-Nov-17 07:11N 54°33' E 011°14'1016.0
2014-Nov-17 06:33N 54°35' E 010°57'1716.9
2014-Nov-17 05:33N 54°32' E 010°29'1413.5
2014-Nov-17 04:33N 54°23' E 010°11'2 2.1
2014-Nov-17 03:33N 54°22' E 010°08'6 6.4
2014-Nov-17 02:33N 54°20' E 009°57'7 6.6
2014-Nov-17 01:33N 54°21' E 009°46'7 7.2
2014-Nov-17 00:33N 54°16' E 009°37'8 7.6
2014-Nov-16 23:33N 54°11' E 009°27'13 6.5
2014-Nov-16 21:29N 53°59' E 009°17'7 7.6
2014-Nov-16 20:33N 53°54' E 009°09'4 4.3
2014-Nov-16 19:34N 53°52' E 009°02'1515.4
2014-Nov-16 18:34N 53°57' E 008°38'  

Dump ship's entire track history